STARLINK-1216 (45185 NORAD) Tracking and Keplerian Element Data

This shows tracking and keplerian element data for the satellite.

Feedback or suggestion? Click here.




ElementValue
Catalog45185
NameSTARLINK-1216
Epoch Orbit768
Epoch Day94.25001157
Epoch Year2020
RAAN52.133
Inclination53.0017
Eccentricity0.0001289
Argument of Perigee57.1849
Mean Anonmoly241.9799
Mean Motion15.05561006
Decay Rate0.00018231
L11 45185U 20012H 20094.25001157 .00018231 00000-0 12678-2 0 9995
L22 45185 53.0017 52.1330 0001289 57.1849 241.9799 15.05561006 7680

Live tracking and technical data element details for STARLINK-1216 (NORAD 45185). STARLINK-1216 can be tracked NOW for your location showing map with azimuth and elevation plus other details from your city location.

Track the satellite on the map from your city or location and see movement details for azimuth, elevation, latitude, longitude, range, height, and movement on the map or in text.







IsCatalogInMostPopularTable: catalog: 45185, numindb: 6
Update: records affected: 1



GetName: 45185 STARLINK-1216

Hit Count: updated at: Mon, 06 Apr 2020 12:33:29 GMT